Charter Quote
Worldwide +1-877-727-2538 Call
Select Language Lang
SAFETY RELIABILITY EXPERIENCE

Private Jet Charter Services - Tianhe (ZHHH)

Paramount Business Jets offers private jet charter flights and luxury airliner charters to and from Tianhe.

AIRPORT INFORMATION
ICAOZHHH
IATAWUH
LOCATIONWuhan, China
FACILITY TYPEAIRPORT

At Paramount Business Jets you can hire chartered private jets to and from Tianhe with as little as 4 hours of notice. All flights booked via Paramount Business Jets are operated by certified direct air carriers that meet and exceed the FAA part 135 and 121 protocol or a foreign equivalent safety authority. Furthermore, Paramount Business Jets subscribes to ARGUS for their third party safety checks of operators, aircraft, and crews prior each and every flight to and from Tianhe and worldwide.

  • Quote a trip using Tianhe or call us 24/7 - 365 days a year at +1-877-727-2538.
Questions? Call +1-877-727-2538

METAR Weather Data at Tianhe, ZHHH, WUH

STATIONZHHH
OBSERVEDThu Nov 14, 16:00 UTC
NOWThu Nov 14, 16:50 UTC
AGE50 min ago
WINDSSE at 7 mph
VISIBILITYgreater than 7 miles
CLOUDSclear skies
TEMP59°F (15°C)
DEWPT41°F (5°C)
HUMIDITY51%
BAROMETER1019 hPa (30.09 in Hg)
METARZHHH 141600Z 15003MPS CAVOK 15/05 Q1019 NOSIG

Call us on +1-877-727-2538 (24 Hours), Check our Pricing, or Get a Quick Quote.

Find Airports Near any Location

Processing
...